Home > Weather > Berkeley > Past weeks

Flag for USA Past Weather in Berkeley, California, USA — Yesterday and Last 2 Weeks

Now
60 °F

Overcast.


Feels Like: 60 °F
Forecast: 55 / 63 °F
Wind: 12 mph from West

Location: Metro Oakland International Airport

Current Time: May 24, 2016 at 10:52:56 AM

Latest Report: May 24, 2016 at 9:53 AM


Visibility: 10 mi

Pressure: 29.96 "Hg

Humidity: 67%

Dew Point: 49 °F

Location of BerkeleyLocation

Past Weather in Berkeley — Graph

°F

Berkeley Temperature Yesterday

Maximum temperature yesterday: 67 °F (at 2:53 PM)
Minimum temperature yesterday: 55 °F (at 2:53 AM)
Average temperature yesterday: 60 °F

High & Low Weather Summary for the Past Weeks

 TemperatureHumidityPressure
High86 °F (May 17, 1:53 PM)86% (May 10, 3:53 AM)30.12 "Hg (May 10, 3:53 AM)
Low53 °F (May 11, 2:53 AM)23% (May 17, 1:53 PM)29.75 "Hg (May 20, 1:53 AM)
Average61 °F68%29.97 "Hg
* Reported May 9 9:53 AM — May 24 9:53 AM, Berkeley, Weather by CustomWeather, © 2016

Note: Actual official high and low records may vary slightly from our data, if they occured in-between our weather recording intervals... More about our weather records

Advertising

Berkeley Weather History for the Previous 24 Hours

Scroll right to see more
 ConditionsComfort  
Time TempWeatherWind HumidityBarometerVisibility
9:53 AM
Tue, May 24
60 °FOvercast.12 mph67%29.96 "Hg10 mi
8:53 AM59 °FOvercast.13 mph69%29.95 "Hg10 mi
7:53 AM58 °FOvercast.16 mph75%29.93 "Hg10 mi
7:04 AM58 °FOvercast.15 mph72%29.92 "Hg10 mi
6:53 AM57 °FOvercast.13 mph74%29.92 "Hg10 mi
5:53 AM58 °FOvercast.10 mph75%29.90 "Hg10 mi
4:53 AM57 °FOvercast.9 mph78%29.90 "Hg10 mi
3:53 AM57 °FOvercast.15 mph78%29.90 "Hg10 mi
2:53 AM58 °FOvercast.10 mph75%29.90 "Hg10 mi
1:53 AM58 °FOvercast.13 mph75%29.90 "Hg10 mi
12:53 AM58 °FOvercast.12 mph75%29.91 "Hg10 mi
11:53 PM
Mon, May 23
58 °FOvercast.14 mph75%29.92 "Hg10 mi
10:53 PM58 °FOvercast.16 mph78%29.93 "Hg10 mi
9:53 PM58 °FOvercast.16 mph75%29.92 "Hg10 mi
8:53 PM58 °FLow clouds.17 mph78%29.91 "Hg10 mi
7:53 PM59 °FPartly sunny.17 mph78%29.91 "Hg10 mi
6:53 PM60 °FPartly sunny.14 mph75%29.90 "Hg10 mi
5:53 PM63 °FBroken clouds.18 mph68%29.91 "Hg10 mi
4:53 PM65 °FPartly sunny.17 mph61%29.92 "Hg10 mi
3:53 PM67 °FPartly sunny.16 mph51%29.93 "Hg10 mi
2:53 PM67 °FScattered clouds.17 mph53%29.94 "Hg10 mi
1:53 PM66 °FScattered clouds.16 mph54%29.95 "Hg10 mi
12:53 PM65 °FPassing clouds.13 mph54%29.96 "Hg10 mi
11:53 AM65 °FScattered clouds.15 mph54%29.97 "Hg10 mi
10:53 AM62 °FScattered clouds.12 mph60%29.97 "Hg10 mi
Weather by CustomWeather, © 2016

See weather overviewHow to use our weather pages